星链-37081(STARLINK-37081)

导读

STARLINK-37081(NORAD编号68229)是美国太空探索技术公司(SpaceX)星链(Starlink)项目的低轨道卫星,于2024年12月8日发射,截至2026年4月已在轨飞行超480天。该卫星运行在近地点约355公里、远地点约357公里的近地轨道,轨道倾角43.001°,周期约91.66分钟,属于Starlink V1.0卫星平台,作为星链星座的组成部分,旨在为全球提供高速低延迟卫星互联网服务,缩小全球数字鸿沟,同时也可为军事、航空等领域提供通信支持。

基本信息
目录编号:
68229
目录名称:
STARLINK-37081
国际标识:
2026-053Y
轨道中心:
EARTH
卫星名称:
星链-37081
卫星全名:
星链-37081(STARLINK-37081)
卫星状态:
在轨 (已飞行85 天)
发射日期:
2026-03-17 UTC
国别 :
美国 (US)
星等 :
--
轨道信息
数据来源 国际轨道数据
星历时间: 2026-06-09T12:20:50+0800
1天前
查看轨道信息
半长轴: 6797.169km
偏心率: 0.0002349
轨道倾角: 97.284°
近地点辐角 128.671°
升交点赤经 38.377°
平近点角 231.476°
近地点: 417.435km
远地点: 420.629km
周期: 92.951分钟
每日圈数: 15.492114
详细信息
固有亮度:
5
最大亮度:
2.5
卫星平台:
Starlink V1.0
覆盖范围:
全球
运营商:
太空探索技术公司
运营商所在国:
美国
制造商(研发单位):
太空探索技术公司
制造商所在国:
美国
使用方式:
暂无
卫星简介
Starlink 计划是 SpaceX 推出的全球卫星互联网项目,通过发射低轨道卫星,为全球尤其是偏远地区提供高速、低延迟的互联网服务。自 2019 年起,Starlink 已部署数千颗卫星,旨在缩小全球数字鸿沟,推动互联网普及。该项目还为军事、航空等行业提供通信支持,带来广泛经济效益。
2D轨道图
3D轨道图
轨道高度分析图
轨道倾角分析图
轨道综合分析图
查看轨道综合分析图